Location: Munkebjergskolens Observatorium
(55.3864°N, 10.3987°E)
Time: 05:10:21
(UTC+02:00)

CAS-6 - Pass Details

Date: 02 April 2023
Orbit: 610 x 632 km, 97.9° (Epoch: 31 May)

Event Time Altitude Azimuth Distance (km) Brightness Sun altitude
Exits shadow 22:18:04 28° 82° (E) 1,183 ? -18.7°
Maximum altitude 22:18:51 30° 61° (ENE) 1,133 ? -18.8°
Drops below altitude 10° 22:22:40 10° 1° (N) 2,017 ? -19.2°
Sets 22:25:04 0° 351° (N) 2,933 ? -19.4°
